Flag for Canada Weather past 2 weeks in Wood Buffalo, Alberta, Canada

Now
29 °F

Chilly.


Feels Like: 29 °F
Forecast: 32 / 63 °F
Wind: No wind

Location: Fort McMurray CS

Current Time: Apr 21, 2015 at 3:12:08 AM

Latest Report: Apr 21, 2015 at 2:00 AM


Visibility: N/A

Pressure: 29.86 "Hg

Humidity: 78%

Dew point: 24 °F

Location of Wood BuffaloLocation

Historic Weather in Wood Buffalo — Graph

°F

Wood Buffalo temperature yesterday

Maximum temperature yesterday: 61 °F (at 3:00 PM)
Minimum temperature yesterday: 35 °F (at 7:00 AM)
Average temperature yesterday: 49 °F

Past Weeks' High & Low Weather Summary

 TemperatureHumidityPressure
High70 °F (Apr 10, 2:00 PM)100% (Apr 15, 4:00 AM)30.26 "Hg (Apr 15, 4:00 AM)
Low11 °F (Apr 6, 7:00 AM)12% (Apr 10, 4:00 PM)29.14 "Hg (Apr 11, 2:00 PM)
Average42 °F50%29.82 "Hg
* Reported Apr 6 1:00 AM — Apr 21 1:00 AM, Wood Buffalo, Weather by CustomWeather, © 2015

Note: Actual official high and low records may vary slightly from our data, if they occured in-between our weather recording intervals... More about our weather records

Advertising

Wood Buffalo weather history for previous 24 hours

 ConditionsComfort  
Time TempWeatherWind HumidityBarometerVisibility
1:00 AM
Tue, Apr 21
39 °FChilly.5 mph54%29.85 "HgN/A
12:00 AM44 °FQuite cool.5 mph41%29.84 "HgN/A
11:00 PM
Mon, Apr 20
46 °FCool.7 mph37%29.84 "HgN/A
10:00 PM50 °FCool.9 mph29%29.83 "HgN/A
9:00 PM53 °FCool.3 mph29%29.82 "HgN/A
8:00 PM57 °FRefreshingly cool.3 mph23%29.82 "HgN/A
7:00 PM59 °FRefreshingly cool.6 mph20%29.82 "HgN/A
6:00 PM60 °FRefreshingly cool.9 mph21%29.82 "HgN/A
5:00 PM60 °FRefreshingly cool.9 mph19%29.83 "HgN/A
4:00 PM60 °FRefreshingly cool.10 mph19%29.82 "HgN/A
3:00 PM61 °FRefreshingly cool.9 mph21%29.81 "HgN/A
2:00 PM59 °FRefreshingly cool.3 mph21%29.83 "HgN/A
1:00 PM57 °FRefreshingly cool.3 mph22%29.85 "HgN/A
12:00 PM56 °FRefreshingly cool.3 mph25%29.85 "HgN/A
11:00 AM53 °FCool.1 mph30%29.86 "HgN/A
10:00 AM48 °FCool.2 mph35%29.87 "HgN/A
9:00 AM44 °FQuite cool.1 mph42%29.87 "HgN/A
8:00 AM40 °FQuite cool.1 mph53%29.86 "HgN/A
7:00 AM35 °FChilly.6 mph66%29.85 "HgN/A
6:00 AM36 °FChilly.7 mph59%29.84 "HgN/A
5:00 AM40 °FQuite cool.3 mph50%29.84 "HgN/A
4:00 AM43 °FQuite cool.3 mph45%29.84 "HgN/A
3:00 AM42 °FQuite cool.3 mph46%29.85 "HgN/A
Weather by CustomWeather, © 2015

See weather overviewHow to use our weather pages